TimeAKDT,TemperatureF,Dew PointF,Humidity,Sea Level PressureIn,VisibilityMPH,Wind Direction,Wind SpeedMPH,Gust SpeedMPH,PrecipitationIn,Events,Conditions,WindDirDegrees,DateUTC
4:36 AM,35.6,28.4,75,30.12,10.0,South,3.5,-,N/A,,Unknown,180,2013-03-24 12:36:00
4:56 AM,35.6,26.6,70,30.12,10.0,Calm,Calm,-,N/A,,Overcast,0,2013-03-24 12:56:00
5:16 AM,35.6,26.6,70,30.12,10.0,Calm,Calm,-,N/A,,Overcast,0,2013-03-24 13:16:00
5:36 AM,35.6,26.6,70,30.11,10.0,Calm,Calm,-,N/A,,Overcast,0,2013-03-24 13:36:00
5:56 AM,35.6,28.4,75,30.11,10.0,Calm,Calm,-,N/A,,Mostly Cloudy,0,2013-03-24 13:56:00
6:16 AM,35.6,28.4,75,30.10,10.0,Calm,Calm,-,N/A,,Mostly Cloudy,0,2013-03-24 14:16:00
6:36 AM,33.8,28.4,81,30.10,10.0,Calm,Calm,-,N/A,,Mostly Cloudy,0,2013-03-24 14:36:00
6:56 AM,35.6,28.4,75,30.10,10.0,Calm,Calm,-,N/A,,Overcast,0,2013-03-24 14:56:00
7:16 AM,35.6,28.4,75,30.09,10.0,Calm,Calm,-,N/A,,Overcast,0,2013-03-24 15:16:00
7:36 AM,35.6,28.4,75,30.09,10.0,SW,3.5,-,N/A,,Overcast,230,2013-03-24 15:36:00
7:56 AM,35.6,28.4,75,30.09,10.0,SSW,3.5,-,N/A,,Overcast,200,2013-03-24 15:56:00
8:16 AM,35.6,30.2,81,30.09,10.0,Calm,Calm,-,N/A,,Overcast,0,2013-03-24 16:16:00
8:36 AM,37.4,28.4,70,30.09,10.0,Calm,Calm,-,N/A,,Overcast,0,2013-03-24 16:36:00
8:56 AM,37.4,28.4,70,30.08,10.0,Calm,Calm,-,N/A,,Overcast,0,2013-03-24 16:56:00
9:16 AM,37.4,28.4,70,30.08,10.0,Calm,Calm,-,N/A,,Overcast,0,2013-03-24 17:16:00
9:36 AM,39.2,28.4,65,30.08,10.0,Calm,Calm,-,N/A,,Overcast,0,2013-03-24 17:36:00
9:56 AM,39.2,28.4,65,30.08,10.0,Calm,Calm,-,N/A,,Overcast,0,2013-03-24 17:56:00
10:16 AM,39.2,26.6,61,30.08,10.0,Calm,Calm,-,N/A,,Overcast,0,2013-03-24 18:16:00
10:36 AM,39.2,26.6,61,30.07,10.0,Calm,Calm,-,N/A,,Overcast,0,2013-03-24 18:36:00
10:56 AM,39.2,26.6,61,30.07,10.0,Calm,Calm,-,N/A,,Overcast,0,2013-03-24 18:56:00
11:16 AM,41.0,26.6,57,30.07,10.0,Calm,Calm,-,N/A,,Overcast,0,2013-03-24 19:16:00
11:36 AM,41.0,26.6,57,30.07,10.0,Calm,Calm,-,N/A,,Overcast,0,2013-03-24 19:36:00
11:56 AM,41.0,26.6,57,30.06,10.0,Calm,Calm,-,N/A,,Overcast,0,2013-03-24 19:56:00
12:16 PM,41.0,26.6,57,30.06,10.0,NNE,3.5,-,N/A,,Overcast,20,2013-03-24 20:16:00
12:36 PM,42.8,26.6,53,30.06,10.0,Calm,Calm,-,N/A,,Overcast,0,2013-03-24 20:36:00
12:56 PM,42.8,26.6,53,30.05,10.0,Calm,Calm,-,N/A,,Overcast,0,2013-03-24 20:56:00
1:16 PM,42.8,26.6,53,30.05,10.0,Calm,Calm,-,N/A,,Overcast,0,2013-03-24 21:16:00
1:36 PM,42.8,26.6,53,30.05,10.0,Calm,Calm,-,N/A,,Overcast,0,2013-03-24 21:36:00
1:56 PM,44.6,24.8,46,30.04,10.0,SE,6.9,-,N/A,,Overcast,140,2013-03-24 21:56:00
2:16 PM,44.6,26.6,49,30.04,10.0,South,5.8,-,N/A,,Overcast,180,2013-03-24 22:16:00
2:36 PM,44.6,26.6,49,30.03,10.0,North,4.6,-,N/A,,Overcast,10,2013-03-24 22:36:00
2:56 PM,44.6,26.6,49,30.03,10.0,West,3.5,-,N/A,,Overcast,270,2013-03-24 22:56:00
3:16 PM,44.6,26.6,49,30.02,10.0,Calm,Calm,-,N/A,,Overcast,0,2013-03-24 23:16:00
3:36 PM,44.6,24.8,46,30.01,10.0,Calm,Calm,-,N/A,,Overcast,0,2013-03-24 23:36:00
3:56 PM,44.6,26.6,49,30.01,10.0,West,3.5,-,N/A,,Overcast,280,2013-03-24 23:56:00
4:16 PM,44.6,26.6,49,30.00,10.0,East,6.9,-,N/A,,Overcast,100,2013-03-25 00:16:00
4:36 PM,44.6,26.6,49,30.00,10.0,South,3.5,-,N/A,,Overcast,170,2013-03-25 00:36:00
4:56 PM,44.6,28.4,53,29.99,10.0,SE,3.5,-,N/A,,Overcast,140,2013-03-25 00:56:00
5:16 PM,44.6,28.4,53,29.98,10.0,East,3.5,-,N/A,,Overcast,90,2013-03-25 01:16:00
5:36 PM,44.6,26.6,49,29.98,10.0,Calm,Calm,-,N/A,,Overcast,0,2013-03-25 01:36:00
5:56 PM,44.6,28.4,53,29.97,10.0,ESE,6.9,-,N/A,,Overcast,120,2013-03-25 01:56:00
6:16 PM,44.6,28.4,53,29.96,10.0,South,9.2,-,N/A,,Overcast,170,2013-03-25 02:16:00
6:36 PM,44.6,28.4,53,29.95,10.0,SSE,6.9,-,N/A,,Overcast,150,2013-03-25 02:36:00
6:56 PM,42.8,28.4,57,29.95,10.0,SE,10.4,-,N/A,,Overcast,130,2013-03-25 02:56:00
7:16 PM,42.8,30.2,61,29.95,10.0,ESE,6.9,-,N/A,,Overcast,120,2013-03-25 03:16:00
7:36 PM,42.8,30.2,61,29.94,10.0,SE,3.5,-,N/A,,Overcast,140,2013-03-25 03:36:00
7:56 PM,42.8,30.2,61,29.94,10.0,SE,3.5,-,0.01,,Overcast,130,2013-03-25 03:56:00
8:16 PM,42.8,30.2,61,29.94,10.0,ESE,8.1,16.1,N/A,,Overcast,120,2013-03-25 04:16:00
8:36 PM,42.8,30.2,61,29.94,10.0,ESE,3.5,-,0.01,,Overcast,120,2013-03-25 04:36:00
8:56 PM,41.0,30.2,65,29.94,10.0,SSE,5.8,-,0.01,,Overcast,150,2013-03-25 04:56:00
9:16 PM,-9999,-9999,N/A,29.93,10.0,ESE,8.1,-,N/A,,Overcast,120,2013-03-25 05:16:00
9:36 PM,41.0,33.8,76,29.93,10.0,ESE,11.5,-,N/A,,Overcast,120,2013-03-25 05:36:00
9:56 PM,41.0,33.8,76,29.93,10.0,SE,10.4,-,0.01,,Overcast,140,2013-03-25 05:56:00
10:16 PM,41.0,33.8,76,29.92,10.0,SE,10.4,-,N/A,,Overcast,130,2013-03-25 06:16:00
10:36 PM,41.0,33.8,76,29.92,10.0,SE,9.2,-,0.01,,Overcast,130,2013-03-25 06:36:00
10:56 PM,41.0,33.8,76,29.91,10.0,ESE,10.4,-,0.01,,Overcast,120,2013-03-25 06:56:00
11:16 PM,41.0,33.8,76,29.91,10.0,ESE,11.5,-,0.01,,Overcast,120,2013-03-25 07:16:00
11:36 PM,42.8,33.8,70,29.90,10.0,SE,9.2,18.4,0.02,,Overcast,140,2013-03-25 07:36:00
11:56 PM,41.0,33.8,76,29.90,10.0,SE,10.4,-,0.02,,Overcast,130,2013-03-25 07:56:00